{"data":{"norad_id":81624,"intl_designator":"","name":"UNKNOWN","alt_names":[],"object_type":"UNKNOWN","status":"UNKNOWN","operator":null,"country":null,"launch_date":null,"launch_site_code":null,"launch_vehicle":null,"mission":null,"orbit_class":"UNKNOWN","rcs_meters":null,"size_class":null,"mass_kg":null,"dimensions":null,"purposes":[],"wikipedia_slug":null,"has_3d_model":false,"image_url":null,"decayed_at":null,"tle_current":{"epoch":"2026-09-14T14:48:25.445088Z","epoch_age_seconds":522836,"freshness":"STALE","line1":"1 81624U          26257.61696117  .00003102  00000+0  47254-3 0  9990","line2":"2 81624  66.9726 122.4957 0060864 357.7804   2.3038 14.74125834680332","mean_motion":14.74125834,"eccentricity":0.0060864,"inclination_deg":66.9726,"raan_deg":122.4957,"arg_perigee_deg":357.7804,"mean_anomaly_deg":2.3038,"bstar":0.00047254,"rev_number":68033,"period_min":97.685012146663,"perigee_km":605.16412766688,"apogee_km":690.69100642864,"semimajor_km":7026.0645670478,"source":"CELESTRAK","updated_at":"2026-09-20T09:00:32.392400Z"}}}